ONEWEB-0120 (47266 NORAD) Tracking and Keplerian Element Data

This shows tracking and keplerian element data for the satellite.

Feedback or suggestion? Click here.




ElementValue
Catalog47266
NameONEWEB-0120
Epoch Orbit177
Epoch Day101.91668981
Epoch Year2021
RAAN6.7911
Inclination87.9593
Eccentricity0.0001265
Argument of Perigee103.651
Mean Anonmoly173.5179
Mean Motion13.28418455
Decay Rate-0.00036595
L11 47266U 20100J 21101.91668981 -.00036595 00000-0 -80652-1 0 9993
L22 47266 87.9593 6.7911 0001265 103.6510 173.5179 13.28418455 1771

Live tracking and technical data element details for ONEWEB-0120 (NORAD 47266). ONEWEB-0120 can be tracked NOW for your location showing map with azimuth and elevation plus other details from your city location.

Track the satellite on the map from your city or location and see movement details for azimuth, elevation, latitude, longitude, range, height, and movement on the map or in text.







IsCatalogInMostPopularTable: catalog: 47266, numindb: 39
Update: records affected: 1



GetName: 47266 ONEWEB-0120

Hit Count: updated at: Tue, 13 Apr 2021 03:36:29 GMT